EW7067 Weather Reports


Display with metric or nautical units.
time (UTC)temp
F
wind
direction
speed
MPH
gust
MPH
rain 1hr
in
rain 24hr
in
rain mn
in
humidity
%
barometer
mb
20260503222138 67 267 2.0 8.0 0.00 0.00 0.00 39 970.6
20260503221637 67 289 2.0 9.0 0.00 0.00 0.00 36 970.6
20260503221138 68 250 1.0 9.0 0.00 0.00 0.00 37 970.7
20260503220638 67 218 2.0 6.0 0.00 0.00 0.00 38 970.7
20260503220137 67 188 2.0 7.0 0.00 0.00 0.00 36 970.7
20260503215638 68 192 1.0 7.0 0.00 0.00 0.00 37 970.8
20260503215138 68 316 1.0 6.0 0.00 0.00 0.00 36 970.8
20260503214637 68 309 1.0 5.0 0.00 0.00 0.00 37 970.8
20260503213637 67 134 3.0 8.0 0.00 0.00 0.00 37 971.0
20260503213138 67 159 3.0 10.0 0.00 0.00 0.00 36 971.0
20260503212639 68 221 2.0 10.0 0.00 0.00 0.00 36 971.1
20260503212137 68 279 1.0 5.0 0.00 0.00 0.00 38 971.2
20260503211635 68 200 1.0 7.0 0.00 0.00 0.00 37 971.2
20260503210629 67 245 3.0 12.0 0.00 0.00 0.00 38 971.4
20260503210123 67 252 2.0 9.0 0.00 0.00 0.00 39 971.3
20260503205616 67 188 3.0 9.0 0.00 0.00 0.00 36 971.4
20260503205111 67 176 2.0 9.0 0.00 0.00 0.00 37 971.4
20260503204605 67 231 2.0 8.0 0.00 0.00 0.00 37 971.4
20260503204059 67 321 2.0 8.0 0.00 0.00 0.00 37 971.5
20260503203553 68 262 1.0 5.0 0.00 0.00 0.00 39 971.6
20260503203053 67 318 1.0 5.0 0.00 0.00 0.00 40 971.6
20260503202551 67 248 2.0 9.0 0.00 0.00 0.00 36 971.7
20260503202052 66 314 3.0 9.0 0.00 0.00 0.00 39 971.8
20260503201555 66 310 3.0 10.0 0.00 0.00 0.00 37 971.8
20260503201050 66 319 3.0 10.0 0.00 0.00 0.00 37 971.9
20260503200550 66 321 3.0 9.0 0.00 0.00 0.00 40 972.0
20260503200049 66 327 3.0 11.0 0.00 0.00 0.00 37 972.1
20260503195547 66 280 2.0 11.0 0.00 0.00 0.00 38 972.2
20260503195047 66 286 1.0 7.0 0.00 0.00 0.00 45 972.2
20260503194547 65 129 3.0 10.0 0.00 0.00 0.00 44 972.2
20260503194045 65 286 4.0 11.0 0.00 0.00 0.00 39 972.3
20260503193545 65 173 4.0 11.0 0.00 0.00 0.00 41 972.3
20260503193045 65 244 4.0 12.0 0.00 0.00 0.00 39 972.4
20260503192045 65 16 3.0 14.0 0.00 0.00 0.00 41 972.4
20260503191549 65 209 3.0 14.0 0.00 0.00 0.00 40 972.4
20260503191047 65 182 2.0 9.0 0.00 0.00 0.00 39 972.6
20260503190542 65 344 3.0 9.0 0.00 0.00 0.00 38 972.6
20260503190036 64 157 3.0 8.0 0.00 0.00 0.00 40 972.7
20260503185529 64 317 4.0 11.0 0.00 0.00 0.00 37 972.7
20260503185024 64 287 4.0 11.0 0.00 0.00 0.00 38 972.8
20260503184518 64 239 3.0 8.0 0.00 0.00 0.00 38 972.9
20260503184013 64 189 3.0 8.0 0.00 0.00 0.00 41 972.9
20260503183506 64 329 1.0 8.0 0.00 0.00 0.00 39 973.0
20260503182959 64 301 1.0 7.0 0.00 0.00 0.00 38 973.1
20260503182453 64 313 2.0 7.0 0.00 0.00 0.00 37 973.3
20260503181947 64 294 2.0 6.0 0.00 0.00 0.00 38 973.3
20260503181441 64 355 2.0 6.0 0.00 0.00 0.00 39 973.4
20260503180936 64 342 3.0 8.0 0.00 0.00 0.00 40 973.3
20260503180430 63 180 3.0 10.0 0.00 0.00 0.00 38 973.4
20260503175925 62 5 3.0 10.0 0.00 0.00 0.00 41 973.5
20260503175418 62 239 3.0 9.0 0.00 0.00 0.00 38 973.6
20260503174912 62 198 2.0 8.0 0.00 0.00 0.00 38 973.6
20260503174406 62 242 1.0 6.0 0.00 0.00 0.00 40 973.7
20260503173859 62 248 1.0 5.0 0.00 0.00 0.00 41 973.8
20260503172847 62 100 3.0 13.0 0.00 0.00 0.00 41 973.9
20260503172341 62 211 3.0 13.0 0.00 0.00 0.00 40 974.0
20260503171835 62 294 1.0 7.0 0.00 0.00 0.00 40 974.0
20260503171330 61 138 2.0 6.0 0.00 0.00 0.00 42 974.1
20260503170823 61 159 2.0 9.0 0.00 0.00 0.00 42 974.1
20260503170318 61 163 2.0 9.0 0.00 0.00 0.00 43 974.2
20260503160207 58 242 4.0 13.0 0.00 0.00 0.00 47 975.2
20260503150602 56 344 4.0 9.0 0.00 0.00 0.00 51 975.3
20260503130510 49 286 1.0 6.0 0.00 0.00 0.00 74 975.3
20260503110422 33 20 0.0 0.0 0.00 0.00 0.00 93 974.4
20260503090302 34 21 0.0 0.0 0.00 0.00 0.00 93 973.0
20260503081202 35 21 0.0 0.0 0.00 0.00 0.00 92 972.7
20260503080656 35 21 0.0 0.0 0.00 0.00 0.00 92 972.6
20260503080150 35 21 0.0 0.0 0.00 0.00 0.00 92 972.6
20260503072102 37 21 1.0 3.0 0.00 0.00 0.00 90 972.1
20260503071050 37 21 0.0 2.0 0.00 0.00 0.00 91 972.0
20260503070544 37 21 0.0 0.0 0.00 0.00 0.00 91 972.0
20260503054914 38 21 0.0 0.0 0.00 0.00 0.00 86 971.7
20260503054409 39 21 0.0 0.0 0.00 0.00 0.00 86 971.6
20260503053903 39 21 0.0 0.0 0.00 0.00 0.00 86 971.7
20260503053356 39 21 0.0 0.0 0.00 0.00 0.00 86 971.6
20260503052346 39 21 0.0 0.0 0.00 0.00 0.00 84 971.6
20260503051838 40 21 0.0 0.0 0.00 0.00 0.00 83 971.6
20260503051332 40 21 0.0 0.0 0.00 0.00 0.00 83 971.6
20260503050826 40 21 0.0 0.0 0.00 0.00 0.00 83 971.6
20260503050320 40 21 0.0 0.0 0.00 0.00 0.00 83 971.6
20260503045815 40 21 0.0 0.0 0.00 0.00 0.00 83 971.5
20260503045308 40 21 0.0 0.0 0.00 0.00 0.00 82 971.5
20260503044257 41 21 0.0 0.0 0.00 0.00 0.00 81 971.5
20260503043752 41 21 0.0 0.0 0.00 0.00 0.00 80 971.5
20260503043244 41 21 0.0 0.0 0.00 0.00 0.00 80 971.5
20260503042232 42 21 0.0 0.0 0.00 0.00 0.00 79 971.3
20260503041726 42 21 0.0 0.0 0.00 0.00 0.00 79 971.2
20260503040714 43 21 0.0 0.0 0.00 0.00 0.00 76 971.1
20260503040209 43 21 0.0 0.0 0.00 0.00 0.00 75 971.1
20260503035156 44 21 0.0 0.0 0.00 0.00 0.00 73 971.1
20260503034650 44 21 0.0 0.0 0.00 0.00 0.00 72 971.1
20260503034145 45 21 0.0 0.0 0.00 0.00 0.00 72 971.1
20260503033639 45 21 0.0 0.0 0.00 0.00 0.00 71 971.0
20260503033133 45 21 0.0 0.0 0.00 0.00 0.00 71 971.0
20260503032627 45 21 0.0 0.0 0.00 0.00 0.00 71 970.9
20260503031614 46 21 0.0 0.0 0.00 0.00 0.00 69 970.8
20260503031110 46 21 0.0 0.0 0.00 0.00 0.00 68 970.8
20260503030602 46 21 0.0 0.0 0.00 0.00 0.00 67 970.8
20260503030057 47 21 0.0 0.0 0.00 0.00 0.00 67 970.8
20260503025551 47 21 0.0 0.0 0.00 0.00 0.00 66 970.8
20260503024538 48 21 1.0 3.0 0.00 0.00 0.00 61 970.7
20260503024032 49 21 1.0 3.0 0.00 0.00 0.00 60 970.7
20260503023526 49 16 0.0 2.0 0.00 0.00 0.00 59 970.6
20260503023020 49 16 0.0 2.0 0.00 0.00 0.00 59 970.6
20260503022008 50 15 0.0 0.0 0.00 0.00 0.00 58 970.4
20260503021502 51 15 0.0 0.0 0.00 0.00 0.00 57 970.4
20260503020956 51 15 0.0 1.0 0.00 0.00 0.00 57 970.5
20260503020451 52 15 0.0 2.0 0.00 0.00 0.00 54 970.5
20260503015945 52 15 1.0 3.0 0.00 0.00 0.00 54 970.5
20260503015438 53 15 1.0 6.0 0.00 0.00 0.00 54 970.4
20260503014932 53 0 2.0 9.0 0.00 0.00 0.00 53 970.2
20260503014426 53 5 2.0 9.0 0.00 0.00 0.00 53 970.1
20260503013921 53 11 2.0 5.0 0.00 0.00 0.00 53 970.1
20260503013414 53 355 3.0 8.0 0.00 0.00 0.00 53 970.0
20260503012909 53 355 3.0 9.0 0.00 0.00 0.00 53 969.9
20260503012402 53 24 3.0 9.0 0.00 0.00 0.00 53 969.9
20260503011856 53 5 3.0 8.0 0.00 0.00 0.00 53 969.8
20260503011350 54 350 3.0 12.0 0.00 0.00 0.00 53 969.7
20260503010844 54 33 2.0 12.0 0.00 0.00 0.00 53 969.6
20260503010339 54 350 2.0 12.0 0.00 0.00 0.00 53 969.5
20260503005327 55 53 4.0 10.0 0.00 0.00 0.00 53 969.3
20260503004821 55 32 4.0 10.0 0.00 0.00 0.00 52 969.3
20260503003809 55 18 2.0 6.0 0.00 0.00 0.00 52 969.1
20260503003303 56 52 2.0 4.0 0.00 0.00 0.00 51 969.0
20260503002756 56 355 2.0 6.0 0.00 0.00 0.00 52 969.0
20260503002250 56 5 2.0 7.0 0.00 0.00 0.00 51 968.9
20260503001745 57 349 1.0 7.0 0.00 0.00 0.00 51 968.7
20260503001239 57 11 2.0 10.0 0.00 0.00 0.00 50 968.6
20260503000732 58 5 3.0 10.0 0.00 0.00 0.00 49 968.5
20260503000227 58 343 4.0 11.0 0.00 0.00 0.00 49 968.5
20260502235725 58 306 4.0 11.0 0.00 0.00 0.00 48 968.3
20260502235224 59 355 2.0 9.0 0.00 0.00 0.00 48 968.3
20260502234724 59 317 3.0 12.0 0.00 0.00 0.00 49 968.2
20260502234222 59 5 5.0 12.0 0.00 0.00 0.00 48 968.2
20260502233722 59 325 4.0 10.0 0.00 0.00 0.00 49 968.0
20260502232721 59 299 4.0 12.0 0.00 0.00 0.00 48 967.9
20260502232220 59 5 5.0 12.0 0.00 0.00 0.00 47 967.8
20260502231720 59 15 3.0 12.0 0.00 0.00 0.00 47 967.7
20260502231220 59 31 2.0 13.0 0.00 0.00 0.00 48 967.7
20260502230718 59 24 3.0 13.0 0.00 0.00 0.00 47 967.6
20260502225219 60 32 5.0 15.0 0.00 0.00 0.00 45 967.6
20260502224217 62 355 4.0 12.0 0.00 0.00 0.00 45 967.4
20260502223710 63 44 5.0 12.0 0.00 0.00 0.00 44 967.4
20260502223210 64 29 6.0 14.0 0.00 0.00 0.00 43 967.3
20260502222710 64 63 6.0 14.0 0.00 0.00 0.00 44 967.3